TimeMDT,TemperatureF,Dew PointF,Humidity,Sea Level PressureIn,VisibilityMPH,Wind Direction,Wind SpeedMPH,Gust SpeedMPH,PrecipitationIn,Events,Conditions,WindDirDegrees,DateUTC
12:42 AM,78.8,64.4,61,29.84,10.0,WSW,6.9,-,N/A,,Overcast,240,2013-07-01 06:42:00
1:46 AM,78.8,66.2,65,29.84,10.0,South,5.8,-,N/A,,Overcast,180,2013-07-01 07:46:00
2:43 AM,78.8,66.2,65,29.82,10.0,SE,5.8,-,N/A,,Overcast,140,2013-07-01 08:43:00
3:46 AM,78.8,66.2,65,29.82,8.0,Calm,Calm,-,N/A,,Overcast,0,2013-07-01 09:46:00
4:40 AM,78.8,66.2,65,29.84,8.0,WSW,5.8,-,N/A,,Overcast,240,2013-07-01 10:40:00
5:47 AM,77.0,64.4,65,29.83,8.0,NW,5.8,-,N/A,,Scattered Clouds,310,2013-07-01 11:47:00
6:44 AM,75.2,66.2,73,29.84,10.0,Calm,Calm,-,N/A,,Scattered Clouds,0,2013-07-01 12:44:00
7:43 AM,78.8,66.2,65,29.86,14.0,NNE,5.8,-,N/A,,Mostly Cloudy,20,2013-07-01 13:43:00
8:46 AM,80.6,66.2,61,29.87,14.0,SSE,5.8,-,N/A,,Scattered Clouds,160,2013-07-01 14:46:00
9:00 AM,86,71,52,29.89,,WSW,4.5,,,,,240,2013-07-01 15:00:00
9:40 AM,84.2,66.2,55,29.86,14.0,WSW,8.1,-,N/A,,Scattered Clouds,240,2013-07-01 15:40:00
10:40 AM,86.0,66.2,51,29.85,15.0,WSW,9.2,-,N/A,,Scattered Clouds,250,2013-07-01 16:40:00
11:44 AM,87.8,64.4,46,29.86,15.0,WSW,11.5,-,N/A,,Mostly Cloudy,240,2013-07-01 17:44:00
12:00 PM,89,72,49,29.87,,WSW,6.7,,,,,240,2013-07-01 18:00:00
12:44 PM,87.8,64.4,46,29.84,15.0,WSW,12.7,-,N/A,,Mostly Cloudy,240,2013-07-01 18:44:00
1:42 PM,87.8,62.6,43,29.81,15.0,SW,12.7,-,N/A,,Mostly Cloudy,220,2013-07-01 19:42:00
2:44 PM,87.8,62.6,43,29.80,15.0,West,15.0,-,N/A,,Mostly Cloudy,260,2013-07-01 20:44:00
3:00 PM,90,70,42,29.82,,WSW,6.7,,,,,250,2013-07-01 21:00:00
3:41 PM,87.8,62.6,43,29.79,15.0,SW,15.0,-,N/A,,Mostly Cloudy,220,2013-07-01 21:41:00
4:48 PM,87.8,62.6,43,29.78,15.0,SW,12.7,-,N/A,,Mostly Cloudy,230,2013-07-01 22:48:00
5:48 PM,84.2,60.8,45,29.79,15.0,SW,10.4,-,N/A,,Mostly Cloudy,230,2013-07-01 23:48:00
6:43 PM,82.4,60.8,48,29.80,15.0,SW,11.5,-,N/A,,Overcast,230,2013-07-02 00:43:00
7:40 PM,82.4,62.6,51,29.84,14.0,SW,8.1,-,N/A,,Overcast,230,2013-07-02 01:40:00
8:44 PM,80.6,62.6,54,29.84,10.0,WSW,9.2,-,N/A,,Overcast,250,2013-07-02 02:44:00
9:48 PM,80.6,62.6,54,29.86,10.0,WSW,8.1,-,N/A,,Overcast,240,2013-07-02 03:48:00
10:48 PM,80.6,62.6,54,29.89,10.0,SSW,5.8,-,N/A,,Overcast,210,2013-07-02 04:48:00
11:53 PM,78.8,64.4,61,29.90,10.0,SE,3.5,-,N/A,,Overcast,130,2013-07-02 05:53:00